When you browse on this site, cookies collect data to enhance your experience and personalize the content and advertising you see.
Visit our Privacy Policy to learn more. By continuing to use the site, you agree to this use of cookies and data.
EN

Hourly Weather Namyur

Today, 3 August, Monday

Time Temperature Precipitation Wind Pressure Humidity
00:00 +12°C° 0 mm 0 mps 751 mmHg 83%
01:00 +12°C° 0 mm 0 mps 751 mmHg 83%
02:00 +12°C° 0 mm 1 mps 750 mmHg 82%
03:00 +12°C° 0 mm 1 mps 750 mmHg 82%
04:00 +12°C° 0 mm 0 mps 750 mmHg 79%
05:00 +13°C° 0 mm 0 mps 750 mmHg 77%
06:00 +14°C° 0 mm 0 mps 750 mmHg 73%
07:00 +16°C° 0 mm 1 mps 750 mmHg 68%
08:00 +19°C° 0 mm 1 mps 750 mmHg 62%
09:00 +19°C° 0 mm 2 mps 750 mmHg 56%
10:00 +20°C° 0 mm 2 mps 749 mmHg 53%
11:00 +22°C° 0 mm 1 mps 749 mmHg 50%
12:00 +23°C° 0 mm 1 mps 748 mmHg 47%
13:00 +23°C° 0 mm 1 mps 748 mmHg 46%
14:00 +24°C° 0 mm 1 mps 748 mmHg 45%
15:00 +24°C° 0 mm 1 mps 748 mmHg 44%
16:00 +21°C° 0.1 mm 2 mps 748 mmHg 51%
17:00 +20°C° 0.1 mm 2 mps 748 mmHg 58%
18:00 +19°C° 0.1 mm 3 mps 748 mmHg 64%
19:00 +18°C° 0.2 mm 3 mps 749 mmHg 72%
20:00 +16°C° 0.2 mm 3 mps 749 mmHg 79%
21:00 +15°C° 0.2 mm 2 mps 750 mmHg 86%
22:00 +14°C° 0 mm 2 mps 750 mmHg 88%
23:00 +13°C° 0 mm 2 mps 750 mmHg 91%

Tomorrow, 4 August, Tuesday

Time Temperature Precipitation Wind Pressure Humidity
00:00 +13°C° 0 mm 2 mps 750 mmHg 93%
01:00 +12°C° 0 mm 2 mps 750 mmHg 93%
02:00 +12°C° 0 mm 1 mps 751 mmHg 93%
03:00 +11°C° 0 mm 1 mps 751 mmHg 94%
04:00 +12°C° 0 mm 1 mps 751 mmHg 92%
05:00 +13°C° 0 mm 1 mps 751 mmHg 90%
06:00 +14°C° 0 mm 1 mps 751 mmHg 88%
07:00 +15°C° 0 mm 1 mps 752 mmHg 79%
08:00 +18°C° 0 mm 1 mps 752 mmHg 69%
09:00 +19°C° 0 mm 2 mps 752 mmHg 60%
10:00 +20°C° 0 mm 2 mps 752 mmHg 53%
11:00 +23°C° 0 mm 2 mps 752 mmHg 47%
12:00 +24°C° 0 mm 1 mps 752 mmHg 41%
13:00 +24°C° 0 mm 2 mps 752 mmHg 40%
14:00 +24°C° 0 mm 2 mps 751 mmHg 39%
15:00 +25°C° 0 mm 2 mps 751 mmHg 38%
16:00 +24°C° 0 mm 1 mps 751 mmHg 43%
17:00 +23°C° 0 mm 1 mps 751 mmHg 48%
18:00 +22°C° 0 mm 1 mps 751 mmHg 53%
19:00 +21°C° 0 mm 1 mps 752 mmHg 55%
20:00 +19°C° 0 mm 1 mps 752 mmHg 58%
21:00 +16°C° 0 mm 2 mps 752 mmHg 60%
22:00 +15°C° 0 mm 2 mps 752 mmHg 65%
23:00 +15°C° 0 mm 1 mps 752 mmHg 69%

Day after tomorrow, 5 August, Wednesday

Time Temperature Precipitation Wind Pressure Humidity
00:00 +14°C° 0 mm 1 mps 752 mmHg 73%
01:00 +14°C° 0 mm 2 mps 752 mmHg 74%
02:00 +14°C° 0 mm 2 mps 752 mmHg 76%
03:00 +13°C° 0 mm 2 mps 752 mmHg 78%
04:00 +14°C° 0 mm 2 mps 752 mmHg 74%
05:00 +15°C° 0 mm 2 mps 752 mmHg 70%
06:00 +16°C° 0 mm 2 mps 752 mmHg 66%
07:00 +19°C° 0 mm 2 mps 752 mmHg 59%
08:00 +21°C° 0 mm 2 mps 753 mmHg 51%
09:00 +25°C° 0 mm 3 mps 753 mmHg 43%
10:00 +26°C° 0 mm 3 mps 753 mmHg 40%
11:00 +27°C° 0 mm 3 mps 753 mmHg 37%
12:00 +28°C° 0 mm 2 mps 752 mmHg 34%
13:00 +28°C° 0 mm 2 mps 752 mmHg 34%
14:00 +28°C° 0 mm 2 mps 752 mmHg 33%
15:00 +29°C° 0 mm 2 mps 752 mmHg 33%
16:00 +28°C° 0 mm 2 mps 752 mmHg 39%
17:00 +27°C° 0 mm 2 mps 752 mmHg 44%
18:00 +26°C° 0 mm 2 mps 752 mmHg 50%
19:00 +24°C° 0 mm 1 mps 752 mmHg 53%
20:00 +22°C° 0 mm 1 mps 753 mmHg 56%
21:00 +20°C° 0 mm 1 mps 753 mmHg 59%
22:00 +19°C° 0 mm 1 mps 753 mmHg 62%
23:00 +18°C° 0 mm 2 mps 753 mmHg 64%

6 August, Thursday

Time Temperature Precipitation Wind Pressure Humidity
00:00 +17°C° 0 mm 2 mps 753 mmHg 67%
01:00 +17°C° 0 mm 2 mps 753 mmHg 67%
02:00 +17°C° 0 mm 2 mps 753 mmHg 67%
03:00 +17°C° 0 mm 2 mps 754 mmHg 68%
04:00 +18°C° 0 mm 2 mps 754 mmHg 67%
05:00 +19°C° 0 mm 2 mps 754 mmHg 66%
06:00 +19°C° 0 mm 2 mps 754 mmHg 65%
07:00 +23°C° 0 mm 2 mps 754 mmHg 57%
08:00 +25°C° 0 mm 2 mps 755 mmHg 50%
09:00 +27°C° 0 mm 3 mps 755 mmHg 42%
10:00 +28°C° 0 mm 3 mps 755 mmHg 39%
11:00 +29°C° 0 mm 3 mps 754 mmHg 36%
12:00 +30°C° 0 mm 3 mps 754 mmHg 33%
13:00 +31°C° 0 mm 3 mps 754 mmHg 33%
14:00 +31°C° 0 mm 3 mps 754 mmHg 33%
15:00 +31°C° 0 mm 3 mps 754 mmHg 33%
16:00 +30°C° 0 mm 3 mps 754 mmHg 39%
17:00 +29°C° 0 mm 3 mps 754 mmHg 44%
18:00 +27°C° 0 mm 2 mps 754 mmHg 50%
19:00 +25°C° 0 mm 2 mps 754 mmHg 54%
20:00 +23°C° 0 mm 2 mps 754 mmHg 58%
21:00 +20°C° 0 mm 2 mps 754 mmHg 62%
22:00 +20°C° 0 mm 2 mps 755 mmHg 64%
23:00 +19°C° 0 mm 2 mps 755 mmHg 66%

7 August, Friday

Time Temperature Precipitation Wind Pressure Humidity
00:00 +19°C° 0 mm 2 mps 755 mmHg 67%
01:00 +18°C° 0 mm 2 mps 755 mmHg 69%
02:00 +18°C° 0 mm 2 mps 754 mmHg 70%
03:00 +19°C° 0 mm 1 mps 754 mmHg 71%
04:00 +20°C° 0 mm 1 mps 754 mmHg 69%
05:00 +21°C° 0 mm 1 mps 755 mmHg 68%
06:00 +22°C° 0 mm 1 mps 755 mmHg 66%
07:00 +24°C° 0 mm 2 mps 755 mmHg 60%
08:00 +26°C° 0 mm 2 mps 755 mmHg 54%
09:00 +29°C° 0 mm 2 mps 755 mmHg 48%
10:00 +30°C° 0 mm 2 mps 755 mmHg 46%
11:00 +31°C° 0 mm 2 mps 754 mmHg 44%
12:00 +32°C° 0 mm 2 mps 754 mmHg 42%
13:00 +32°C° 0 mm 2 mps 754 mmHg 42%
14:00 +34°C° 0 mm 2 mps 754 mmHg 42%
15:00 +34°C° 0 mm 2 mps 753 mmHg 42%
16:00 +32°C° 0 mm 2 mps 753 mmHg 46%
17:00 +31°C° 0 mm 2 mps 753 mmHg 51%
18:00 +30°C° 0 mm 2 mps 753 mmHg 55%
19:00 +28°C° 0 mm 2 mps 754 mmHg 60%
20:00 +27°C° 0 mm 1 mps 754 mmHg 64%
21:00 +25°C° 0 mm 1 mps 754 mmHg 69%
22:00 +24°C° 0 mm 1 mps 754 mmHg 71%
23:00 +23°C° 0 mm 1 mps 754 mmHg 74%

8 August, Saturday

Time Temperature Precipitation Wind Pressure Humidity
00:00 +23°C° 0 mm 1 mps 754 mmHg 77%
01:00 +22°C° 0 mm 1 mps 754 mmHg 78%
02:00 +22°C° 0 mm 1 mps 754 mmHg 79%
03:00 +22°C° 0 mm 1 mps 753 mmHg 80%
04:00 +23°C° 0 mm 1 mps 754 mmHg 77%
05:00 +24°C° 0 mm 1 mps 754 mmHg 74%
06:00 +25°C° 0 mm 1 mps 754 mmHg 71%
07:00 +27°C° 0 mm 1 mps 754 mmHg 64%
08:00 +29°C° 0 mm 1 mps 754 mmHg 57%
09:00 +29°C° 0 mm 0 mps 754 mmHg 50%
10:00 +32°C° 0 mm 1 mps 754 mmHg 46%
11:00 +33°C° 0 mm 1 mps 754 mmHg 41%
12:00 +35°C° 0 mm 1 mps 754 mmHg 37%
13:00 +35°C° 0 mm 1 mps 753 mmHg 36%
14:00 +36°C° 0 mm 2 mps 753 mmHg 34%
15:00 +36°C° 0 mm 2 mps 753 mmHg 33%
16:00 +35°C° 0 mm 2 mps 753 mmHg 37%
17:00 +34°C° 0 mm 2 mps 753 mmHg 42%
18:00 +32°C° 0 mm 1 mps 753 mmHg 46%
19:00 +30°C° 0 mm 2 mps 753 mmHg 53%
20:00 +27°C° 0 mm 2 mps 753 mmHg 59%
21:00 +25°C° 0 mm 2 mps 753 mmHg 65%
22:00 +24°C° 0 mm 2 mps 753 mmHg 70%
23:00 +23°C° 0 mm 2 mps 754 mmHg 74%
Show more